| time (UTC) | temp F | wind direction | speed MPH | gust MPH | rain 1hr in | rain 24hr in | rain mn in | humidity % | barometer mb |
| 20260506191141 | 70 | 307 | 2.0 | 4.0 | 0.00 | 0.23 | 0.23 | 89 | 1015.9 |
| 20260506190639 | 70 | 313 | 3.0 | 4.0 | 0.00 | 0.23 | 0.23 | 91 | 1016.1 |
| 20260506190135 | 70 | 84 | 1.0 | 2.0 | 0.00 | 0.23 | 0.23 | 93 | 1015.9 |
| 20260506185633 | 70 | 270 | 0.0 | 3.0 | 0.00 | 0.23 | 0.23 | 96 | 1016.0 |
| 20260506185129 | 70 | 270 | 2.0 | 2.0 | 0.00 | 0.23 | 0.23 | 98 | 1015.7 |
| 20260506184626 | 70 | 83 | 0.0 | 1.0 | 0.00 | 0.23 | 0.23 | 99 | 1015.7 |
| 20260506184123 | 68 | 98 | 0.0 | 3.0 | 0.00 | 0.23 | 0.23 | 99 | 1016.1 |
| 20260506183620 | 67 | 98 | 0.0 | 2.0 | 0.00 | 0.23 | 0.23 | 99 | 1015.8 |
| 20260506183116 | 66 | 81 | 0.0 | 0.0 | 0.00 | 0.23 | 0.23 | 99 | 1016.0 |
| 20260506182614 | 66 | 45 | 2.0 | 2.0 | 0.00 | 0.23 | 0.23 | 99 | 1016.0 |
| 20260506182110 | 67 | 69 | 0.0 | 0.0 | 0.00 | 0.23 | 0.23 | 99 | 1016.0 |
| 20260506181608 | 66 | 69 | 0.0 | 1.0 | 0.00 | 0.23 | 0.23 | 99 | 1015.2 |
| 20260506181105 | 66 | 90 | 0.0 | 0.0 | 0.00 | 0.23 | 0.23 | 99 | 1015.7 |
| 20260506180602 | 66 | 69 | 0.0 | 0.0 | 0.02 | 0.23 | 0.23 | 99 | 1016.2 |
| 20260506180058 | 66 | 35 | 0.0 | 0.0 | 0.07 | 0.23 | 0.23 | 99 | 1016.3 |
| 20260506175554 | 65 | 66 | 0.0 | 3.0 | 0.12 | 0.23 | 0.23 | 99 | 1016.9 |
| 20260506175051 | 64 | 74 | 0.0 | 3.0 | 0.07 | 0.21 | 0.21 | 98 | 1017.3 |
| 20260506174550 | 64 | 98 | 0.0 | 2.0 | 0.07 | 0.20 | 0.20 | 98 | 1018.1 |
| 20260506174045 | 64 | 98 | 0.0 | 3.0 | 0.02 | 0.20 | 0.20 | 98 | 1018.1 |
| 20260506173543 | 64 | 90 | 0.0 | 2.0 | 0.05 | 0.19 | 0.19 | 97 | 1018.0 |
| 20260506173040 | 64 | 107 | 0.0 | 2.0 | 0.07 | 0.19 | 0.19 | 97 | 1018.1 |
| 20260506172538 | 64 | 0 | 0.0 | 1.0 | 0.12 | 0.18 | 0.18 | 97 | 1017.9 |
| 20260506172033 | 64 | 0 | 0.0 | 3.0 | 0.17 | 0.17 | 0.17 | 96 | 1018.3 |
| 20260506171531 | 63 | 97 | 1.0 | 5.0 | 0.28 | 0.16 | 0.16 | 95 | 1018.6 |
| 20260506171028 | 64 | 0 | 0.0 | 2.0 | 0.35 | 0.14 | 0.14 | 93 | 1019.3 |
| 20260506170526 | 65 | 53 | 0.0 | 2.0 | 0.54 | 0.10 | 0.10 | 91 | 1018.9 |
| 20260506170023 | 66 | 303 | 0.0 | 3.0 | 0.38 | 0.06 | 0.06 | 85 | 1018.4 |
| 20260506165522 | 69 | 85 | 2.0 | 6.0 | 0.02 | 0.00 | 0.00 | 74 | 1018.6 |
| 20260506165018 | 70 | 111 | 1.0 | 5.0 | 0.00 | 0.00 | 0.00 | 71 | 1018.2 |
| 20260506164514 | 72 | 338 | 4.0 | 4.0 | 0.00 | 0.00 | 0.00 | 65 | 1018.0 |
| 20260506164012 | 71 | 29 | 0.0 | 3.0 | 0.00 | 0.00 | 0.00 | 64 | 1017.8 |
| 20260506163508 | 73 | 26 | 2.0 | 2.0 | 0.00 | 0.00 | 0.00 | 64 | 1018.0 |
| 20260506163004 | 73 | 74 | 0.0 | 2.0 | 0.00 | 0.00 | 0.00 | 61 | 1017.3 |
| 20260506162500 | 73 | 338 | 3.0 | 4.0 | 0.00 | 0.00 | 0.00 | 62 | 1017.3 |
| 20260506161957 | 74 | 4 | 2.0 | 2.0 | 0.00 | 0.00 | 0.00 | 63 | 1017.2 |
| 20260506161455 | 74 | 90 | 0.0 | 2.0 | 0.00 | 0.00 | 0.00 | 61 | 1017.1 |
| 20260506160952 | 74 | 74 | 0.0 | 5.0 | 0.00 | 0.00 | 0.00 | 59 | 1017.3 |
| 20260506160449 | 75 | 96 | 0.0 | 5.0 | 0.00 | 0.00 | 0.00 | 62 | 1017.1 |
| 20260506155946 | 76 | 29 | 1.0 | 3.0 | 0.00 | 0.00 | 0.00 | 60 | 1017.4 |
| 20260506155444 | 75 | 8 | 0.0 | 2.0 | 0.00 | 0.00 | 0.00 | 61 | 1017.2 |
| 20260506153616 | 75 | 294 | 1.0 | 7.0 | 0.00 | 0.00 | 0.00 | 66 | 1017.2 |
| 20260506153114 | 75 | 270 | 0.0 | 4.0 | 0.00 | 0.00 | 0.00 | 68 | 1017.2 |
| 20260506152611 | 74 | 235 | 2.0 | 5.0 | 0.00 | 0.00 | 0.00 | 66 | 1017.1 |
| 20260506152109 | 74 | 90 | 0.0 | 6.0 | 0.00 | 0.00 | 0.00 | 67 | 1016.9 |
| 20260506151607 | 73 | 261 | 0.0 | 4.0 | 0.00 | 0.00 | 0.00 | 70 | 1016.7 |
| 20260506151103 | 73 | 291 | 1.0 | 5.0 | 0.00 | 0.00 | 0.00 | 65 | 1016.6 |
| 20260506150600 | 73 | 90 | 0.0 | 2.0 | 0.00 | 0.00 | 0.00 | 72 | 1016.7 |
| 20260506150057 | 73 | 287 | 0.0 | 2.0 | 0.00 | 0.00 | 0.00 | 74 | 1016.6 |
| 20260506145554 | 72 | 270 | 0.0 | 3.0 | 0.00 | 0.00 | 0.00 | 74 | 1017.1 |
| 20260506145051 | 71 | 90 | 0.0 | 2.0 | 0.00 | 0.00 | 0.00 | 75 | 1017.0 |
| 20260506144548 | 70 | 90 | 0.0 | 2.0 | 0.00 | 0.00 | 0.00 | 77 | 1017.1 |
| 20260506144045 | 70 | 97 | 1.0 | 2.0 | 0.00 | 0.00 | 0.00 | 78 | 1016.8 |
| 20260506143543 | 69 | 90 | 0.0 | 1.0 | 0.00 | 0.00 | 0.00 | 80 | 1017.3 |
| 20260506143041 | 68 | 82 | 0.0 | 0.0 | 0.00 | 0.00 | 0.00 | 79 | 1017.1 |
| 20260506142538 | 68 | 261 | 0.0 | 0.0 | 0.00 | 0.00 | 0.00 | 79 | 1017.3 |
| 20260506142037 | 68 | 270 | 1.0 | 1.0 | 0.00 | 0.00 | 0.00 | 79 | 1017.1 |
| 20260506141534 | 67 | 303 | 0.0 | 2.0 | 0.00 | 0.00 | 0.00 | 80 | 1017.2 |
| 20260506141032 | 67 | 270 | 0.0 | 1.0 | 0.00 | 0.00 | 0.00 | 81 | 1017.0 |
| 20260506140529 | 67 | 90 | 0.0 | 1.0 | 0.00 | 0.00 | 0.00 | 80 | 1017.1 |
| 20260506140026 | 67 | 90 | 0.0 | 3.0 | 0.00 | 0.00 | 0.00 | 80 | 1016.9 |
| 20260506135523 | 67 | 291 | 0.0 | 3.0 | 0.00 | 0.00 | 0.00 | 80 | 1017.2 |
| 20260506135019 | 67 | 166 | 0.0 | 1.0 | 0.00 | 0.00 | 0.00 | 80 | 1016.7 |
| 20260506134515 | 67 | 90 | 0.0 | 4.0 | 0.00 | 0.00 | 0.00 | 79 | 1017.0 |
| 20260506134012 | 67 | 90 | 1.0 | 2.0 | 0.00 | 0.00 | 0.00 | 80 | 1016.7 |
| 20260506133509 | 67 | 339 | 0.0 | 5.0 | 0.00 | 0.00 | 0.00 | 79 | 1016.6 |
| 20260506133006 | 67 | 30 | 0.0 | 2.0 | 0.00 | 0.00 | 0.00 | 81 | 1016.8 |
| 20260506132503 | 66 | 209 | 0.0 | 2.0 | 0.00 | 0.00 | 0.00 | 82 | 1016.8 |
| 20260506132000 | 65 | 90 | 0.0 | 2.0 | 0.00 | 0.00 | 0.00 | 81 | 1016.8 |
| 20260506131457 | 65 | 90 | 0.0 | 1.0 | 0.00 | 0.00 | 0.00 | 82 | 1016.9 |
| 20260506130954 | 65 | 114 | 0.0 | 3.0 | 0.00 | 0.00 | 0.00 | 82 | 1016.7 |
| 20260506130450 | 64 | 106 | 0.0 | 4.0 | 0.00 | 0.00 | 0.00 | 83 | 1016.8 |
| 20260506125948 | 64 | 99 | 0.0 | 2.0 | 0.00 | 0.00 | 0.00 | 83 | 1016.4 |
| 20260506125446 | 63 | 54 | 0.0 | 2.0 | 0.00 | 0.00 | 0.00 | 83 | 1016.4 |
| 20260506124944 | 63 | 90 | 0.0 | 2.0 | 0.00 | 0.00 | 0.00 | 84 | 1016.6 |
| 20260506124441 | 63 | 97 | 1.0 | 2.0 | 0.00 | 0.00 | 0.00 | 84 | 1016.7 |
| 20260506123939 | 63 | 81 | 0.0 | 2.0 | 0.00 | 0.00 | 0.00 | 84 | 1017.2 |
| 20260506123437 | 63 | 6 | 0.0 | 2.0 | 0.00 | 0.00 | 0.00 | 83 | 1017.4 |
| 20260506122934 | 62 | 66 | 0.0 | 2.0 | 0.00 | 0.00 | 0.00 | 84 | 1017.3 |
| 20260506122431 | 62 | 241 | 0.0 | 2.0 | 0.00 | 0.00 | 0.00 | 84 | 1017.0 |
| 20260506121929 | 62 | 90 | 0.0 | 2.0 | 0.00 | 0.00 | 0.00 | 84 | 1017.4 |
| 20260506121426 | 62 | 246 | 0.0 | 4.0 | 0.00 | 0.00 | 0.00 | 84 | 1017.6 |
| 20260506120923 | 62 | 94 | 3.0 | 3.0 | 0.00 | 0.00 | 0.00 | 84 | 1017.6 |
| 20260506120420 | 62 | 74 | 0.0 | 2.0 | 0.00 | 0.00 | 0.00 | 84 | 1017.6 |
| 20260506115917 | 62 | 286 | 0.0 | 1.0 | 0.00 | 0.00 | 0.00 | 85 | 1017.7 |
| 20260506115415 | 62 | 66 | 0.0 | 1.0 | 0.00 | 0.00 | 0.00 | 84 | 1017.6 |
| 20260506114914 | 62 | 352 | 0.0 | 1.0 | 0.00 | 0.00 | 0.00 | 84 | 1017.5 |
| 20260506114411 | 62 | 90 | 0.0 | 0.0 | 0.00 | 0.00 | 0.00 | 85 | 1017.2 |
| 20260506113910 | 62 | 90 | 0.0 | 0.0 | 0.00 | 0.00 | 0.00 | 85 | 1017.3 |
| 20260506113407 | 61 | 270 | 2.0 | 2.0 | 0.00 | 0.00 | 0.00 | 85 | 1017.3 |
| 20260506112903 | 61 | 180 | 0.0 | 2.0 | 0.00 | 0.00 | 0.00 | 85 | 1017.1 |
| 20260506112400 | 61 | 53 | 2.0 | 2.0 | 0.00 | 0.00 | 0.00 | 86 | 1017.2 |
| 20260506111857 | 61 | 270 | 0.0 | 0.0 | 0.00 | 0.00 | 0.00 | 85 | 1016.9 |
| 20260506111356 | 61 | 0 | 0.0 | 2.0 | 0.00 | 0.00 | 0.00 | 85 | 1016.9 |
| 20260506110853 | 60 | 90 | 0.0 | 0.0 | 0.00 | 0.00 | 0.00 | 86 | 1016.9 |
| 20260506110350 | 60 | 35 | 0.0 | 1.0 | 0.00 | 0.00 | 0.00 | 86 | 1016.8 |
| 20260506105847 | 60 | 99 | 0.0 | 0.0 | 0.00 | 0.00 | 0.00 | 85 | 1016.7 |
| 20260506105343 | 60 | 99 | 0.0 | 0.0 | 0.00 | 0.00 | 0.00 | 86 | 1016.7 |
| 20260506104841 | 60 | 75 | 0.0 | 2.0 | 0.00 | 0.00 | 0.00 | 85 | 1016.4 |
| 20260506104338 | 60 | 262 | 0.0 | 1.0 | 0.00 | 0.00 | 0.00 | 85 | 1016.6 |
| 20260506103836 | 60 | 337 | 0.0 | 2.0 | 0.00 | 0.00 | 0.00 | 85 | 1016.2 |
| 20260506103333 | 60 | 6 | 0.0 | 2.0 | 0.00 | 0.00 | 0.00 | 86 | 1016.4 |
| 20260506102831 | 60 | 254 | 0.0 | 0.0 | 0.00 | 0.00 | 0.00 | 86 | 1016.2 |
| 20260506102328 | 60 | 254 | 0.0 | 2.0 | 0.00 | 0.00 | 0.00 | 85 | 1016.1 |
| 20260506101825 | 60 | 81 | 0.0 | 0.0 | 0.00 | 0.00 | 0.00 | 85 | 1016.2 |
| 20260506101321 | 61 | 77 | 0.0 | 1.0 | 0.00 | 0.00 | 0.00 | 85 | 1016.2 |
| 20260506100819 | 60 | 90 | 0.0 | 0.0 | 0.00 | 0.00 | 0.00 | 84 | 1016.3 |
| 20260506100318 | 60 | 90 | 1.0 | 1.0 | 0.00 | 0.00 | 0.00 | 85 | 1016.2 |
| 20260506095816 | 60 | 174 | 0.0 | 1.0 | 0.00 | 0.00 | 0.00 | 85 | 1016.3 |
| 20260506095312 | 60 | 100 | 0.0 | 2.0 | 0.00 | 0.00 | 0.00 | 85 | 1016.1 |
| 20260506094809 | 60 | 14 | 0.0 | 1.0 | 0.00 | 0.00 | 0.00 | 85 | 1016.2 |
| 20260506094308 | 60 | 83 | 0.0 | 1.0 | 0.00 | 0.00 | 0.00 | 85 | 1016.2 |
| 20260506093805 | 60 | 82 | 0.0 | 1.0 | 0.00 | 0.00 | 0.00 | 85 | 1016.4 |
| 20260506093302 | 60 | 90 | 0.0 | 2.0 | 0.00 | 0.00 | 0.00 | 85 | 1016.4 |
| 20260506092800 | 60 | 6 | 0.0 | 2.0 | 0.00 | 0.00 | 0.00 | 85 | 1016.3 |
| 20260506092258 | 60 | 68 | 0.0 | 2.0 | 0.00 | 0.00 | 0.00 | 85 | 1016.4 |
| 20260506091755 | 61 | 90 | 0.0 | 1.0 | 0.00 | 0.00 | 0.00 | 85 | 1016.4 |
| 20260506091252 | 60 | 90 | 0.0 | 1.0 | 0.00 | 0.00 | 0.00 | 84 | 1016.6 |
| 20260506090750 | 61 | 348 | 0.0 | 1.0 | 0.00 | 0.00 | 0.00 | 84 | 1016.8 |
| 20260506090247 | 61 | 81 | 0.0 | 0.0 | 0.00 | 0.00 | 0.00 | 84 | 1016.5 |
| 20260506085744 | 61 | 168 | 0.0 | 1.0 | 0.00 | 0.00 | 0.00 | 84 | 1016.6 |
| 20260506085240 | 61 | 99 | 0.0 | 2.0 | 0.00 | 0.00 | 0.00 | 84 | 1016.9 |
| 20260506084736 | 61 | 99 | 0.0 | 1.0 | 0.00 | 0.00 | 0.00 | 84 | 1016.7 |
| 20260506084233 | 61 | 99 | 0.0 | 1.0 | 0.00 | 0.00 | 0.00 | 84 | 1016.9 |
| 20260506083730 | 61 | 59 | 2.0 | 2.0 | 0.00 | 0.00 | 0.00 | 85 | 1016.9 |
| 20260506083228 | 61 | 75 | 0.0 | 1.0 | 0.00 | 0.00 | 0.00 | 84 | 1017.0 |
| 20260506082725 | 61 | 81 | 0.0 | 2.0 | 0.00 | 0.00 | 0.00 | 83 | 1016.8 |
| 20260506082220 | 61 | 23 | 0.0 | 1.0 | 0.00 | 0.00 | 0.00 | 84 | 1017.0 |
| 20260506081718 | 61 | 0 | 0.0 | 2.0 | 0.00 | 0.00 | 0.00 | 83 | 1017.0 |
| 20260506081215 | 61 | 73 | 0.0 | 2.0 | 0.00 | 0.00 | 0.00 | 83 | 1016.8 |
| 20260506080713 | 61 | 90 | 1.0 | 1.0 | 0.00 | 0.00 | 0.00 | 83 | 1016.9 |
| 20260506080209 | 62 | 90 | 0.0 | 4.0 | 0.00 | 0.00 | 0.00 | 83 | 1017.0 |
| 20260506073154 | 62 | 68 | 0.0 | 2.0 | 0.00 | 0.00 | 0.00 | 82 | 1017.0 |
| 20260506072650 | 62 | 84 | 2.0 | 2.0 | 0.00 | 0.00 | 0.00 | 81 | 1017.1 |
| 20260506072148 | 62 | 63 | 0.0 | 2.0 | 0.00 | 0.00 | 0.00 | 81 | 1017.1 |
| 20260506071645 | 62 | 90 | 0.0 | 3.0 | 0.00 | 0.00 | 0.00 | 81 | 1017.1 |
| 20260506071143 | 62 | 68 | 0.0 | 2.0 | 0.00 | 0.00 | 0.00 | 81 | 1017.3 |
| 20260506070640 | 62 | 90 | 0.0 | 2.0 | 0.00 | 0.00 | 0.00 | 81 | 1017.1 |
| 20260506070137 | 62 | 66 | 0.0 | 1.0 | 0.00 | 0.00 | 0.00 | 80 | 1016.7 |
| 20260506062114 | 63 | 0 | 0.0 | 2.0 | 0.00 | 0.00 | 0.00 | 80 | 1017.1 |
| 20260506061610 | 63 | 45 | 0.0 | 3.0 | 0.00 | 0.00 | 0.00 | 78 | 1017.1 |
| 20260506061108 | 63 | 81 | 0.0 | 3.0 | 0.00 | 0.00 | 0.00 | 80 | 1017.4 |
| 20260506060606 | 63 | 74 | 0.0 | 2.0 | 0.00 | 0.00 | 0.00 | 80 | 1017.5 |
| 20260506051035 | 64 | 90 | 0.0 | 2.0 | 0.00 | 0.00 | 0.00 | 76 | 1017.3 |
| 20260506050533 | 64 | 270 | 0.0 | 2.0 | 0.00 | 0.00 | 0.00 | 76 | 1017.4 |
| 20260506045023 | 64 | 74 | 0.0 | 0.0 | 0.00 | 0.00 | 0.00 | 78 | 1017.2 |
| 20260506044521 | 64 | 90 | 0.0 | 3.0 | 0.00 | 0.00 | 0.00 | 78 | 1017.6 |
| 20260506044018 | 65 | 85 | 2.0 | 2.0 | 0.00 | 0.00 | 0.00 | 76 | 1017.3 |
| 20260506043515 | 65 | 90 | 1.0 | 1.0 | 0.00 | 0.00 | 0.00 | 75 | 1017.4 |
| 20260506043013 | 65 | 0 | 0.0 | 2.0 | 0.00 | 0.00 | 0.00 | 74 | 1017.6 |
| 20260506042512 | 65 | 81 | 0.0 | 2.0 | 0.00 | 0.00 | 0.00 | 74 | 1017.6 |
| 20260506042009 | 65 | 98 | 1.0 | 1.0 | 0.00 | 0.00 | 0.00 | 73 | 1017.5 |
| 20260506041508 | 65 | 90 | 0.0 | 2.0 | 0.00 | 0.00 | 0.00 | 74 | 1017.4 |
| 20260506041004 | 65 | 82 | 0.0 | 3.0 | 0.00 | 0.00 | 0.00 | 74 | 1017.2 |
| 20260506040502 | 65 | 77 | 0.0 | 3.0 | 0.00 | 0.00 | 0.00 | 75 | 1017.2 |
| 20260506035957 | 66 | 81 | 2.0 | 2.0 | 0.00 | 0.00 | 0.00 | 72 | 1017.1 |
| 20260506035455 | 65 | 69 | 0.0 | 1.0 | 0.00 | 0.00 | 0.00 | 73 | 1017.3 |
| 20260506034951 | 65 | 75 | 1.0 | 1.0 | 0.00 | 0.00 | 0.00 | 73 | 1017.1 |
| 20260506034449 | 65 | 162 | 0.0 | 1.0 | 0.00 | 0.00 | 0.00 | 73 | 1017.0 |
| 20260506033946 | 64 | 81 | 0.0 | 1.0 | 0.00 | 0.00 | 0.00 | 73 | 1017.2 |
| 20260506033443 | 63 | 81 | 0.0 | 0.0 | 0.00 | 0.00 | 0.00 | 74 | 1017.2 |
| 20260506032940 | 64 | 270 | 0.0 | 0.0 | 0.00 | 0.00 | 0.00 | 73 | 1017.2 |
| 20260506032437 | 64 | 90 | 0.0 | 1.0 | 0.00 | 0.00 | 0.00 | 75 | 1017.0 |
| 20260506031933 | 63 | 291 | 0.0 | 1.0 | 0.00 | 0.00 | 0.00 | 71 | 1017.0 |
| 20260506031431 | 62 | 194 | 0.0 | 1.0 | 0.00 | 0.00 | 0.00 | 72 | 1016.9 |
| 20260506030929 | 62 | 90 | 0.0 | 2.0 | 0.00 | 0.00 | 0.00 | 72 | 1017.1 |
| 20260506030427 | 61 | 0 | 0.0 | 0.0 | 0.00 | 0.00 | 0.00 | 73 | 1017.0 |
| 20260506025923 | 61 | 270 | 0.0 | 0.0 | 0.00 | 0.00 | 0.00 | 73 | 1017.2 |
| 20260506025420 | 61 | 270 | 0.0 | 0.0 | 0.00 | 0.00 | 0.00 | 72 | 1017.0 |
| 20260506024917 | 61 | 270 | 0.0 | 0.0 | 0.00 | 0.00 | 0.00 | 72 | 1016.9 |
| 20260506024414 | 61 | 270 | 0.0 | 0.0 | 0.00 | 0.00 | 0.00 | 72 | 1016.9 |
| 20260506023909 | 61 | 270 | 0.0 | 0.0 | 0.00 | 0.00 | 0.00 | 71 | 1017.0 |
| 20260506023407 | 61 | 270 | 0.0 | 0.0 | 0.00 | 0.00 | 0.00 | 71 | 1017.1 |
| 20260506022903 | 62 | 270 | 0.0 | 0.0 | 0.00 | 0.00 | 0.00 | 70 | 1017.1 |
| 20260506022401 | 62 | 270 | 0.0 | 0.0 | 0.00 | 0.00 | 0.00 | 70 | 1017.1 |
| 20260506021859 | 62 | 270 | 0.0 | 0.0 | 0.00 | 0.00 | 0.00 | 69 | 1017.2 |
| 20260506021355 | 62 | 270 | 0.0 | 0.0 | 0.00 | 0.00 | 0.00 | 69 | 1017.0 |
| 20260506020852 | 62 | 270 | 0.0 | 0.0 | 0.00 | 0.00 | 0.00 | 68 | 1017.0 |
| 20260506020350 | 62 | 270 | 0.0 | 0.0 | 0.00 | 0.00 | 0.00 | 67 | 1017.1 |
| 20260506015847 | 62 | 270 | 0.0 | 0.0 | 0.00 | 0.00 | 0.00 | 67 | 1017.1 |
| 20260506015345 | 63 | 270 | 0.0 | 0.0 | 0.00 | 0.00 | 0.00 | 66 | 1017.3 |
| 20260506014841 | 63 | 270 | 0.0 | 0.0 | 0.00 | 0.00 | 0.00 | 65 | 1017.2 |
| 20260506014338 | 63 | 270 | 0.0 | 0.0 | 0.00 | 0.00 | 0.00 | 65 | 1017.2 |
| 20260506013835 | 64 | 270 | 0.0 | 0.0 | 0.00 | 0.00 | 0.00 | 64 | 1017.2 |
| 20260506013333 | 64 | 270 | 0.0 | 0.0 | 0.00 | 0.00 | 0.00 | 63 | 1017.2 |
| 20260506012829 | 64 | 270 | 0.0 | 0.0 | 0.00 | 0.00 | 0.00 | 62 | 1017.1 |
| 20260506012326 | 65 | 270 | 0.0 | 0.0 | 0.00 | 0.00 | 0.00 | 62 | 1017.0 |
| 20260506011823 | 65 | 270 | 0.0 | 0.0 | 0.00 | 0.00 | 0.00 | 61 | 1016.8 |
| 20260506011320 | 66 | 270 | 0.0 | 0.0 | 0.00 | 0.00 | 0.00 | 60 | 1017.0 |
| 20260506010817 | 66 | 270 | 0.0 | 0.0 | 0.00 | 0.00 | 0.00 | 59 | 1016.7 |
| 20260506010315 | 66 | 270 | 0.0 | 0.0 | 0.00 | 0.00 | 0.00 | 58 | 1016.9 |
| 20260506005812 | 67 | 270 | 0.0 | 0.0 | 0.00 | 0.00 | 0.00 | 58 | 1016.8 |
| 20260506005308 | 67 | 270 | 0.0 | 0.0 | 0.00 | 0.00 | 0.00 | 56 | 1016.8 |
| 20260506004805 | 68 | 270 | 0.0 | 0.0 | 0.00 | 0.00 | 0.00 | 57 | 1016.6 |
| 20260506004302 | 68 | 270 | 0.0 | 1.0 | 0.00 | 0.00 | 0.00 | 55 | 1016.5 |
| 20260506003758 | 69 | 66 | 0.0 | 0.0 | 0.00 | 0.00 | 0.00 | 54 | 1016.5 |
| 20260506003255 | 70 | 66 | 0.0 | 0.0 | 0.00 | 0.00 | 0.00 | 54 | 1016.5 |
| 20260506002751 | 70 | 66 | 0.0 | 0.0 | 0.00 | 0.00 | 0.00 | 52 | 1016.6 |
| 20260506002247 | 71 | 66 | 0.0 | 0.0 | 0.00 | 0.00 | 0.00 | 51 | 1016.4 |
| 20260506001743 | 72 | 66 | 0.0 | 0.0 | 0.00 | 0.00 | 0.00 | 50 | 1016.8 |
| 20260506001241 | 72 | 66 | 0.0 | 0.0 | 0.00 | 0.00 | 0.00 | 49 | 1016.6 |
| 20260506000737 | 72 | 11 | 0.0 | 2.0 | 0.00 | 0.00 | 0.00 | 48 | 1016.6 |
| 20260506000235 | 73 | 99 | 0.0 | 3.0 | 0.00 | 0.00 | 0.00 | 48 | 1016.4 |
| 20260505235732 | 74 | 14 | 0.0 | 2.0 | 0.00 | 0.00 | 0.00 | 46 | 1016.5 |
| 20260505235230 | 75 | 82 | 0.0 | 0.0 | 0.00 | 0.00 | 0.00 | 45 | 1016.5 |
| 20260505234726 | 77 | 66 | 0.0 | 0.0 | 0.00 | 0.00 | 0.00 | 43 | 1016.4 |
| 20260505234224 | 78 | 270 | 0.0 | 2.0 | 0.00 | 0.00 | 0.00 | 42 | 1016.3 |
| 20260505233720 | 80 | 26 | 0.0 | 0.0 | 0.00 | 0.00 | 0.00 | 42 | 1016.2 |
| 20260505233218 | 80 | 261 | 0.0 | 1.0 | 0.00 | 0.00 | 0.00 | 41 | 1016.1 |
| 20260505232715 | 80 | 265 | 0.0 | 2.0 | 0.00 | 0.00 | 0.00 | 41 | 1016.3 |
| 20260505232212 | 81 | 81 | 0.0 | 1.0 | 0.00 | 0.00 | 0.00 | 40 | 1016.3 |
| 20260505231709 | 84 | 285 | 1.0 | 1.0 | 0.00 | 0.00 | 0.00 | 38 | 1016.4 |
| 20260505231208 | 85 | 106 | 0.0 | 0.0 | 0.00 | 0.00 | 0.00 | 38 | 1016.5 |
| 20260505230706 | 83 | 106 | 0.0 | 1.0 | 0.00 | 0.00 | 0.00 | 40 | 1016.3 |
| 20260505230202 | 84 | 265 | 2.0 | 2.0 | 0.00 | 0.00 | 0.00 | 39 | 1016.3 |
| 20260505225658 | 84 | 261 | 0.0 | 1.0 | 0.00 | 0.00 | 0.00 | 38 | 1016.4 |
| 20260505225155 | 85 | 289 | 0.0 | 2.0 | 0.00 | 0.00 | 0.00 | 38 | 1016.3 |
| 20260505224651 | 82 | 57 | 0.0 | 2.0 | 0.00 | 0.00 | 0.00 | 38 | 1016.3 |
| 20260505224149 | 81 | 127 | 0.0 | 2.0 | 0.00 | 0.00 | 0.00 | 41 | 1016.2 |
| 20260505223646 | 81 | 131 | 0.0 | 2.0 | 0.00 | 0.00 | 0.00 | 41 | 1016.2 |
| 20260505223142 | 80 | 90 | 0.0 | 2.0 | 0.00 | 0.00 | 0.00 | 42 | 1016.3 |
| 20260505222632 | 83 | 270 | 0.0 | 2.0 | 0.00 | 0.00 | 0.00 | 40 | 1016.4 |
| 20260505222129 | 79 | 114 | 0.0 | 1.0 | 0.00 | 0.00 | 0.00 | 44 | 1016.5 |
| 20260505221626 | 80 | 71 | 0.0 | 3.0 | 0.00 | 0.00 | 0.00 | 42 | 1016.6 |
| 20260505221122 | 85 | 262 | 0.0 | 3.0 | 0.00 | 0.00 | 0.00 | 39 | 1016.5 |
| 20260505220620 | 87 | 291 | 0.0 | 1.0 | 0.00 | 0.00 | 0.00 | 38 | 1016.3 |
| 20260505220118 | 85 | 180 | 0.0 | 2.0 | 0.00 | 0.00 | 0.00 | 43 | 1016.4 |
| 20260505215615 | 82 | 14 | 3.0 | 4.0 | 0.00 | 0.00 | 0.00 | 38 | 1016.4 |
| 20260505215113 | 84 | 270 | 0.0 | 3.0 | 0.00 | 0.00 | 0.00 | 38 | 1016.6 |
| 20260505214611 | 83 | 275 | 0.0 | 3.0 | 0.00 | 0.00 | 0.00 | 39 | 1016.5 |
| 20260505214108 | 80 | 90 | 0.0 | 2.0 | 0.00 | 0.00 | 0.00 | 41 | 1016.7 |
| 20260505213605 | 83 | 12 | 3.0 | 3.0 | 0.00 | 0.00 | 0.00 | 40 | 1016.7 |
| 20260505213102 | 87 | 270 | 0.0 | 2.0 | 0.00 | 0.00 | 0.00 | 40 | 1016.6 |
| 20260505212558 | 85 | 0 | 1.0 | 3.0 | 0.00 | 0.00 | 0.00 | 36 | 1016.5 |
| 20260505212056 | 84 | 75 | 3.0 | 3.0 | 0.00 | 0.00 | 0.00 | 41 | 1016.7 |
| 20260505211552 | 82 | 279 | 0.0 | 7.0 | 0.00 | 0.00 | 0.00 | 40 | 1016.9 |
| 20260505211049 | 83 | 97 | 0.0 | 5.0 | 0.00 | 0.00 | 0.00 | 40 | 1016.7 |
| 20260505210546 | 86 | 262 | 0.0 | 2.0 | 0.00 | 0.00 | 0.00 | 39 | 1016.9 |
| 20260505210043 | 83 | 132 | 2.0 | 4.0 | 0.00 | 0.00 | 0.00 | 39 | 1016.9 |
| 20260505205541 | 84 | 263 | 0.0 | 3.0 | 0.00 | 0.00 | 0.00 | 42 | 1016.9 |
| 20260505205038 | 82 | 294 | 0.0 | 3.0 | 0.00 | 0.00 | 0.00 | 39 | 1016.7 |
| 20260505204535 | 83 | 79 | 3.0 | 4.0 | 0.00 | 0.00 | 0.00 | 37 | 1016.9 |
| 20260505204033 | 82 | 90 | 0.0 | 5.0 | 0.00 | 0.00 | 0.00 | 40 | 1016.9 |
| 20260505203529 | 80 | 90 | 2.0 | 5.0 | 0.00 | 0.00 | 0.00 | 41 | 1017.1 |
| 20260505203026 | 81 | 343 | 5.0 | 8.0 | 0.00 | 0.00 | 0.00 | 41 | 1017.0 |
| 20260505202522 | 82 | 240 | 0.0 | 5.0 | 0.00 | 0.00 | 0.00 | 39 | 1017.1 |
| 20260505202018 | 82 | 0 | 0.0 | 3.0 | 0.00 | 0.00 | 0.00 | 38 | 1017.1 |
| 20260505201516 | 83 | 71 | 0.0 | 3.0 | 0.00 | 0.00 | 0.00 | 40 | 1017.4 |
| 20260505201013 | 84 | 275 | 2.0 | 2.0 | 0.00 | 0.00 | 0.00 | 42 | 1017.2 |
| 20260505200511 | 82 | 69 | 0.0 | 3.0 | 0.00 | 0.00 | 0.00 | 40 | 1017.4 |
| 20260505200007 | 84 | 270 | 0.0 | 3.0 | 0.00 | 0.00 | 0.00 | 40 | 1017.2 |
| 20260505195503 | 84 | 270 | 1.0 | 2.0 | 0.00 | 0.00 | 0.00 | 41 | 1017.3 |
| 20260505195001 | 84 | 278 | 1.0 | 3.0 | 0.00 | 0.00 | 0.00 | 40 | 1017.3 |
| 20260505194458 | 85 | 270 | 2.0 | 3.0 | 0.00 | 0.00 | 0.00 | 40 | 1017.7 |
| 20260505193958 | 84 | 203 | 2.0 | 2.0 | 0.00 | 0.00 | 0.00 | 41 | 1017.6 |
| 20260505193456 | 83 | 75 | 1.0 | 3.0 | 0.00 | 0.00 | 0.00 | 40 | 1017.5 |
| 20260505192953 | 83 | 7 | 1.0 | 5.0 | 0.00 | 0.00 | 0.00 | 42 | 1017.6 |
| 20260505192452 | 83 | 71 | 3.0 | 6.0 | 0.00 | 0.00 | 0.00 | 39 | 1018.0 |
| 20260505191949 | 86 | 321 | 0.0 | 3.0 | 0.00 | 0.00 | 0.00 | 41 | 1017.8 |